Kant

Kyrgyzstan     42˚53′21″N   74˚51′05″E
temp.,
°C
wind,
m/s
gust,
m/s
humid.,
%
clouds,
%
prec.,
mm/h
press.,
hPa
HPBL,
m
3 december, thu
thu300:00−3˚sw117897 0.0 102821
03:00−3˚nnw0175100 0.0 102721
06:00−3˚ese117099 0.0 102821
09:00−2˚ese126731 0.0 102721
12:00+2˚ssw018516 0.0 102624
15:00+2˚wnw238876 0.0 102570
18:00se118488 0.0 102722
21:00ese1286100 0.0 102721
4 december, fri
fri400:00−1˚ese228499 0.0 102626
03:00−1˚ese1185100 0.0 102522
06:00−1˚wsw0189100 0.0 102624
09:00−1˚se0197100 0.1 102625
12:00wnw1297100 0.1 1024156
15:00w3498100 0.4 1024236
18:00−2˚wsw2398100 1.4 1026127
21:00−1˚nw1299100 1.6 1027104
5 december, sat
sat500:00−3˚wnw2298100 2.1 102661
03:00−3˚wnw129399 0.4 102763
06:00−6˚wsw239697 0.4 102775
09:00−5˚wsw259799 0.2 1029222
12:00−4˚w2392100 0.5 1029272
15:00−4˚w229078 0.1 1028301
18:00−7˚sw019481 0.1 103121
21:00−7˚ne119045 0.0 103221
6 december, sun
sun600:00−8˚e128129 0.0 103121
03:00−9˚ese11810 0.0 103221
06:00−10˚ese11841 0.0 103221
09:00−9˚e118168 0.0 103321
12:00−4˚nw117784 0.0 103181
15:00−3˚wnw1283100 0.0 1030111
18:00−8˚e018792 0.0 103121
21:00−7˚e22761 0.0 103121
7 december, mon
mon700:00−6˚e22701 0.0 102921
03:00−8˚nw11723 0.0 102921
06:00−8˚ese117551 0.0 102721
09:00−6˚e1166100 0.0 102621
12:00−2˚nnw1169100 0.0 102344
15:00−1˚nw1277100 0.0 1022105
18:00−4˚ne1181100 0.0 102421
21:00−5˚nw1183100 0.0 102621